Time,TemperatureF,DewpointF,PressureIn,WindDirection,WindDirectionDegrees,WindSpeedMPH,WindSpeedGustMPH,Humidity,HourlyPrecipIn,Conditions,Clouds,dailyrainin,SoftwareType,DateUTC
2013-04-09 00:09:00,43.8,42.0,30.05,ESE,114,1.0,5.0,94,0.00,,,0.00,weatherlink.com 1.10,2013-04-09 04:09:00,
2013-04-09 00:25:00,43.8,43.0,30.06,SE,126,1.0,3.0,95,0.00,,,0.00,weatherlink.com 1.10,2013-04-09 04:25:00,
2013-04-09 00:40:00,43.9,43.0,30.05,SE,124,2.0,4.0,95,0.00,,,0.00,weatherlink.com 1.10,2013-04-09 04:40:00,
2013-04-09 00:55:00,43.9,43.0,30.05,SE,129,0.0,3.0,95,0.00,,,0.00,weatherlink.com 1.10,2013-04-09 04:55:00,
2013-04-09 01:10:00,43.6,42.0,30.04,SE,124,2.0,3.0,95,0.00,,,0.00,weatherlink.com 1.10,2013-04-09 05:10:00,
2013-04-09 01:25:00,43.5,42.0,30.04,ESE,122,2.0,3.0,95,0.00,,,0.00,weatherlink.com 1.10,2013-04-09 05:25:00,
2013-04-09 01:55:00,43.6,42.0,30.02,SE,131,2.0,3.0,95,0.00,,,0.00,weatherlink.com 1.10,2013-04-09 05:55:00,
2013-04-09 02:10:00,43.6,42.0,30.01,SE,129,2.0,3.0,95,0.00,,,0.00,weatherlink.com 1.10,2013-04-09 06:10:00,
2013-04-09 02:25:00,44.0,43.0,29.99,East,91,5.0,5.0,96,0.00,,,0.00,weatherlink.com 1.10,2013-04-09 06:25:00,
2013-04-09 02:40:00,44.0,43.0,29.99,ESE,115,2.0,4.0,96,0.00,,,0.00,weatherlink.com 1.10,2013-04-09 06:40:00,
2013-04-09 02:55:00,44.3,43.0,29.99,SSE,149,0.0,4.0,96,0.00,,,0.00,weatherlink.com 1.10,2013-04-09 06:55:00,
2013-04-09 03:10:00,44.3,43.0,29.98,SE,136,2.0,4.0,96,0.00,,,0.00,weatherlink.com 1.10,2013-04-09 07:10:00,
2013-04-09 03:25:00,44.1,43.0,29.97,SSE,150,1.0,3.0,96,0.00,,,0.00,weatherlink.com 1.10,2013-04-09 07:25:00,
2013-04-09 03:40:00,44.2,43.0,29.96,ESE,121,2.0,3.0,96,0.00,,,0.00,weatherlink.com 1.10,2013-04-09 07:40:00,
2013-04-09 03:55:00,44.3,43.0,29.96,SE,130,1.0,3.0,96,0.00,,,0.00,weatherlink.com 1.10,2013-04-09 07:55:00,
2013-04-09 04:10:00,44.1,43.0,29.96,SE,126,0.0,3.0,96,0.00,,,0.00,weatherlink.com 1.10,2013-04-09 08:10:00,
2013-04-09 04:25:00,44.3,43.0,29.96,SE,145,0.0,2.0,96,0.00,,,0.00,weatherlink.com 1.10,2013-04-09 08:25:00,
2013-04-09 04:40:00,44.3,43.0,29.95,SE,135,1.0,2.0,96,0.00,,,0.00,weatherlink.com 1.10,2013-04-09 08:40:00,
2013-04-09 04:55:00,43.1,42.0,29.93,SE,144,0.0,3.0,96,0.00,,,0.00,weatherlink.com 1.10,2013-04-09 08:55:00,
2013-04-09 05:10:00,-999.0,-99.9,29.94,North,-999,-999.0,-999.0,-999,0.00,,,0.00,weatherlink.com 1.10,2013-04-09 09:10:00,
2013-04-09 05:25:00,-999.0,-99.9,29.91,North,-999,-999.0,-999.0,-999,0.00,,,0.00,weatherlink.com 1.10,2013-04-09 09:25:00,
2013-04-09 05:40:00,-999.0,-99.9,29.93,North,-999,-999.0,-999.0,-999,0.00,,,0.00,weatherlink.com 1.10,2013-04-09 09:40:00,
2013-04-09 05:55:00,-999.0,-99.9,29.92,North,-999,-999.0,-999.0,-999,0.00,,,0.00,weatherlink.com 1.10,2013-04-09 09:55:00,
2013-04-09 06:10:00,-999.0,-99.9,29.91,North,-999,-999.0,-999.0,-999,0.00,,,0.00,weatherlink.com 1.10,2013-04-09 10:10:00,
2013-04-09 06:26:00,-999.0,-99.9,29.92,North,-999,-999.0,-999.0,-999,0.00,,,0.00,weatherlink.com 1.10,2013-04-09 10:26:00,
2013-04-09 06:41:00,-999.0,-99.9,29.92,North,-999,-999.0,-999.0,-999,0.00,,,0.00,weatherlink.com 1.10,2013-04-09 10:41:00,
2013-04-09 06:56:00,-999.0,-99.9,29.92,North,-999,-999.0,-999.0,-999,0.00,,,0.00,weatherlink.com 1.10,2013-04-09 10:56:00,
2013-04-09 07:11:00,45.2,45.0,29.92,West,278,1.0,2.0,98,0.00,,,0.00,weatherlink.com 1.10,2013-04-09 11:11:00,
2013-04-09 07:56:00,46.6,46.0,29.91,West,267,0.0,1.0,98,0.00,,,0.00,weatherlink.com 1.10,2013-04-09 11:56:00,
2013-04-09 08:26:00,49.0,49.0,29.91,WSW,250,2.0,4.0,98,0.00,,,0.00,weatherlink.com 1.10,2013-04-09 12:26:00,
2013-04-09 08:56:00,49.3,49.0,29.90,West,271,3.0,4.0,97,0.00,,,0.00,weatherlink.com 1.10,2013-04-09 12:56:00,
2013-04-09 09:11:00,50.2,49.0,29.90,West,260,3.0,4.0,97,0.00,,,0.00,weatherlink.com 1.10,2013-04-09 13:11:00,
2013-04-09 09:26:00,50.8,50.0,29.90,WNW,294,2.0,4.0,96,0.00,,,0.00,weatherlink.com 1.10,2013-04-09 13:26:00,
2013-04-09 09:41:00,51.1,50.0,29.90,NW,311,2.0,5.0,94,0.00,,,0.00,weatherlink.com 1.10,2013-04-09 13:41:00,
2013-04-09 10:26:00,57.4,54.0,29.89,WNW,283,4.0,9.0,88,0.00,,,0.00,weatherlink.com 1.10,2013-04-09 14:26:00,
2013-04-09 10:57:00,60.6,53.0,29.89,NW,317,6.0,13.0,77,0.00,,,0.00,weatherlink.com 1.10,2013-04-09 14:57:00,
2013-04-09 11:12:00,57.5,51.0,29.89,NW,314,5.0,12.0,80,0.00,,,0.00,weatherlink.com 1.10,2013-04-09 15:12:00,
2013-04-09 11:27:00,59.3,53.0,29.89,NW,312,9.0,15.0,79,0.00,,,0.00,weatherlink.com 1.10,2013-04-09 15:27:00,
2013-04-09 11:42:00,62.8,55.0,29.88,West,274,6.0,14.0,75,0.00,,,0.00,weatherlink.com 1.10,2013-04-09 15:42:00,
2013-04-09 11:57:00,65.0,55.0,29.87,West,276,4.0,15.0,70,0.00,,,0.00,weatherlink.com 1.10,2013-04-09 15:57:00,
2013-04-09 12:12:00,66.8,54.0,29.87,West,266,9.0,14.0,64,0.00,,,0.00,weatherlink.com 1.10,2013-04-09 16:12:00,
2013-04-09 12:27:00,68.3,55.0,29.87,NNW,336,11.0,14.0,62,0.00,,,0.00,weatherlink.com 1.10,2013-04-09 16:27:00,
2013-04-09 12:57:00,69.8,54.0,29.86,NW,312,5.0,10.0,58,0.00,,,0.00,weatherlink.com 1.10,2013-04-09 16:57:00,
2013-04-09 13:12:00,71.1,53.0,29.86,West,277,6.0,11.0,53,0.00,,,0.00,weatherlink.com 1.10,2013-04-09 17:12:00,
2013-04-09 13:27:00,71.6,53.0,29.85,WNW,294,9.0,14.0,52,0.00,,,0.00,weatherlink.com 1.10,2013-04-09 17:27:00,
2013-04-09 13:42:00,72.7,52.0,29.86,West,262,5.0,10.0,49,0.00,,,0.00,weatherlink.com 1.10,2013-04-09 17:42:00,
2013-04-09 13:57:00,72.7,51.0,29.86,WSW,242,5.0,6.0,47,0.00,,,0.00,weatherlink.com 1.10,2013-04-09 17:57:00,
2013-04-09 14:12:00,66.9,50.0,29.87,West,266,0.0,0.0,55,0.00,,,0.00,weatherlink.com 1.10,2013-04-09 18:12:00,
2013-04-09 14:27:00,71.8,50.0,29.87,NW,307,0.0,0.0,47,0.00,,,0.00,weatherlink.com 1.10,2013-04-09 18:27:00,
2013-04-09 14:42:00,72.2,50.0,29.87,NW,325,0.0,0.0,46,0.00,,,0.00,weatherlink.com 1.10,2013-04-09 18:42:00,
2013-04-09 14:57:00,73.8,49.0,29.87,NW,305,0.0,0.0,42,0.00,,,0.00,weatherlink.com 1.10,2013-04-09 18:57:00,
2013-04-09 15:12:00,72.0,49.0,29.87,WSW,249,0.0,0.0,44,0.00,,,0.00,weatherlink.com 1.10,2013-04-09 19:12:00,
2013-04-09 15:27:00,71.6,48.0,29.88,WNW,290,0.0,1.0,43,0.00,,,0.00,weatherlink.com 1.10,2013-04-09 19:27:00,
2013-04-09 15:42:00,71.7,48.0,29.87,WNW,293,0.0,0.0,43,0.00,,,0.00,weatherlink.com 1.10,2013-04-09 19:42:00,
2013-04-09 15:57:00,72.4,47.0,29.87,WNW,302,0.0,0.0,41,0.00,,,0.00,weatherlink.com 1.10,2013-04-09 19:57:00,
2013-04-09 16:12:00,70.8,47.0,29.87,WNW,290,0.0,0.0,43,0.00,,,0.00,weatherlink.com 1.10,2013-04-09 20:12:00,
2013-04-09 16:27:00,70.8,46.0,29.88,WNW,295,0.0,0.0,42,0.00,,,0.00,weatherlink.com 1.10,2013-04-09 20:27:00,
2013-04-09 16:42:00,71.0,46.0,29.88,WNW,290,0.0,0.0,41,0.00,,,0.00,weatherlink.com 1.10,2013-04-09 20:42:00,
2013-04-09 16:57:00,68.9,45.0,29.89,WNW,291,0.0,0.0,43,0.00,,,0.00,weatherlink.com 1.10,2013-04-09 20:57:00,
2013-04-09 17:12:00,68.9,45.0,29.89,WNW,287,4.0,6.0,42,0.00,,,0.00,weatherlink.com 1.10,2013-04-09 21:12:00,
2013-04-09 17:27:00,70.2,46.0,29.89,WSW,253,3.0,6.0,42,0.00,,,0.00,weatherlink.com 1.10,2013-04-09 21:27:00,
2013-04-09 17:42:00,68.4,45.0,29.89,WNW,288,3.0,8.0,43,0.00,,,0.00,weatherlink.com 1.10,2013-04-09 21:42:00,
2013-04-09 17:58:00,72.4,45.0,29.90,WSW,257,2.0,5.0,38,0.00,,,0.00,weatherlink.com 1.10,2013-04-09 21:58:00,
2013-04-09 18:12:00,70.4,45.0,29.91,West,266,1.0,4.0,41,0.00,,,0.00,weatherlink.com 1.10,2013-04-09 22:12:00,
2013-04-09 18:28:00,69.3,48.0,29.91,West,262,1.0,2.0,47,0.00,,,0.00,weatherlink.com 1.10,2013-04-09 22:28:00,
2013-04-09 18:43:00,67.9,48.0,29.92,SE,143,0.0,2.0,49,0.00,,,0.00,weatherlink.com 1.10,2013-04-09 22:43:00,
2013-04-09 18:58:00,67.5,46.0,29.93,WSW,252,0.0,0.0,47,0.00,,,0.00,weatherlink.com 1.10,2013-04-09 22:58:00,
2013-04-09 19:13:00,66.1,45.0,29.93,South,178,0.0,1.0,47,0.00,,,0.00,weatherlink.com 1.10,2013-04-09 23:13:00,
2013-04-09 19:28:00,63.6,45.0,29.93,South,179,0.0,1.0,51,0.00,,,0.00,weatherlink.com 1.10,2013-04-09 23:28:00,
2013-04-09 19:43:00,61.2,45.0,29.95,SE,144,0.0,1.0,55,0.00,,,0.00,weatherlink.com 1.10,2013-04-09 23:43:00,
2013-04-09 19:58:00,58.8,44.0,29.95,SE,140,0.0,1.0,58,0.00,,,0.00,weatherlink.com 1.10,2013-04-09 23:58:00,
2013-04-09 20:13:00,59.0,44.0,29.95,SE,139,0.0,0.0,58,0.00,,,0.00,weatherlink.com 1.10,2013-04-10 00:13:00,
2013-04-09 20:28:00,59.4,44.0,29.95,WSW,239,0.0,0.0,58,0.00,,,0.00,weatherlink.com 1.10,2013-04-10 00:28:00,
2013-04-09 20:43:00,58.9,44.0,29.96,WSW,240,0.0,0.0,59,0.00,,,0.00,weatherlink.com 1.10,2013-04-10 00:43:00,
2013-04-09 20:58:00,57.9,44.0,29.98,SSW,200,0.0,0.0,61,0.00,,,0.00,weatherlink.com 1.10,2013-04-10 00:58:00,
2013-04-09 21:13:00,57.9,44.0,29.97,SSW,200,0.0,0.0,60,0.00,,,0.00,weatherlink.com 1.10,2013-04-10 01:13:00,
2013-04-09 21:28:00,54.6,43.0,29.97,SE,139,0.0,1.0,64,0.00,,,0.00,weatherlink.com 1.10,2013-04-10 01:28:00,
2013-04-09 21:43:00,53.0,44.0,29.97,ESE,122,0.0,1.0,72,0.00,,,0.00,weatherlink.com 1.10,2013-04-10 01:43:00,
2013-04-09 21:58:00,49.1,42.0,29.98,ESE,118,3.0,8.0,77,0.00,,,0.00,weatherlink.com 1.10,2013-04-10 01:58:00,
2013-04-09 22:13:00,46.6,43.0,29.98,SE,124,3.0,7.0,86,0.00,,,0.00,weatherlink.com 1.10,2013-04-10 02:13:00,
2013-04-09 22:28:00,46.0,43.0,29.99,ESE,105,5.0,6.0,89,0.00,,,0.00,weatherlink.com 1.10,2013-04-10 02:28:00,
2013-04-09 22:43:00,45.9,43.0,29.99,SE,133,3.0,8.0,90,0.00,,,0.00,weatherlink.com 1.10,2013-04-10 02:43:00,
2013-04-09 22:58:00,46.1,44.0,29.98,SE,125,6.0,7.0,91,0.00,,,0.00,weatherlink.com 1.10,2013-04-10 02:58:00,
2013-04-09 23:13:00,46.0,44.0,29.98,ESE,117,3.0,6.0,91,0.00,,,0.00,weatherlink.com 1.10,2013-04-10 03:13:00,
2013-04-09 23:28:00,45.7,43.0,29.97,SE,136,3.0,5.0,91,0.00,,,0.00,weatherlink.com 1.10,2013-04-10 03:28:00,
2013-04-09 23:43:00,45.4,43.0,29.96,ESE,111,3.0,6.0,91,0.00,,,0.00,weatherlink.com 1.10,2013-04-10 03:43:00,
2013-04-09 23:59:00,44.7,43.0,29.94,SE,134,2.0,7.0,92,0.00,,,0.00,weatherlink.com 1.10,2013-04-10 03:59:00,